{"data":{"norad_id":53544,"intl_designator":"2022-101T","name":"STARLINK-4303","alt_names":[],"object_type":"PAYLOAD","status":"ACTIVE","operator":null,"country":"US","launch_date":"2022-08-19","launch_site_code":"AFETR","launch_vehicle":null,"mission":null,"orbit_class":"UNKNOWN","rcs_meters":null,"size_class":null,"mass_kg":null,"dimensions":null,"purposes":["comms"],"wikipedia_slug":null,"has_3d_model":false,"image_url":null,"decayed_at":null,"tle_current":{"epoch":"2026-05-25T04:41:52.816416Z","epoch_age_seconds":61274,"freshness":"FRESH","line1":"1 53544U 22101T   26145.19575019  .00000865  00000+0  72424-4 0  9993","line2":"2 53544  53.2125  80.6707 0001396  78.7804 281.3345 15.08838544208521","mean_motion":15.08838544,"eccentricity":0.0001396,"inclination_deg":53.2125,"raan_deg":80.6707,"arg_perigee_deg":78.7804,"mean_anomaly_deg":281.3345,"bstar":7.2424e-5,"rev_number":20852,"period_min":95.437646773159,"perigee_km":538.78210265362,"apogee_km":540.71357610078,"semimajor_km":6917.8848393772,"source":"CELESTRAK","updated_at":"2026-05-25T13:38:17.442946Z"}}}